When you browse on this site, cookies collect data to enhance your experience and personalize the content and advertising you see.
Visit our Privacy Policy to learn more. By continuing to use the site, you agree to this use of cookies and data.
  • In Latvia
  • List of Countries
  • For 7 days
  • Water Temperature
  • Weather Map
  • Weather Widgets
  • user-avatar
    Login

    Hourly Weather Sydney

    Today, 17 November, Sunday

    Time Temperature Precipitation Wind Pressure Humidity
    00:00 +19°C° 0.1 mm 2 mps 761 mmHg 79%
    01:00 +19°C° 0.1 mm 3 mps 761 mmHg 82%
    02:00 +18°C° 1.6 mm 2 mps 760 mmHg 84%
    03:00 +18°C° 1.6 mm 2 mps 760 mmHg 86%
    04:00 +18°C° 0 mm 1 mps 760 mmHg 88%
    05:00 +18°C° 0.7 mm 2 mps 760 mmHg 84%
    06:00 +19°C° 0.7 mm 2 mps 760 mmHg 81%
    07:00 +20°C° 0.7 mm 2 mps 760 mmHg 78%
    08:00 +21°C° 0.4 mm 3 mps 760 mmHg 72%
    09:00 +22°C° 0.4 mm 3 mps 760 mmHg 66%
    10:00 +23°C° 0 mm 5 mps 760 mmHg 55%
    11:00 +23°C° 0.2 mm 6 mps 760 mmHg 56%
    12:00 +23°C° 0.2 mm 7 mps 760 mmHg 57%
    13:00 +23°C° 0.2 mm 8 mps 760 mmHg 58%
    14:00 +22°C° 0.1 mm 7 mps 760 mmHg 61%
    15:00 +21°C° 0.1 mm 7 mps 761 mmHg 64%
    16:00 +20°C° 0 mm 5 mps 761 mmHg 68%
    17:00 +19°C° 0.1 mm 5 mps 762 mmHg 71%
    18:00 +19°C° 0.1 mm 5 mps 762 mmHg 74%
    19:00 +17°C° 0.1 mm 5 mps 763 mmHg 77%
    20:00 +17°C° 0.1 mm 5 mps 764 mmHg 78%
    21:00 +18°C° 0.1 mm 4 mps 764 mmHg 78%
    22:00 +17°C° 0.1 mm 4 mps 765 mmHg 78%
    23:00 +17°C° 0.1 mm 4 mps 764 mmHg 78%

    Tomorrow, 18 November, Monday

    Time Temperature Precipitation Wind Pressure Humidity
    00:00 +17°C° 0.1 mm 3 mps 764 mmHg 78%
    01:00 +17°C° 0.1 mm 2 mps 764 mmHg 78%
    02:00 +17°C° 0 mm 2 mps 763 mmHg 79%
    03:00 +16°C° 0 mm 2 mps 763 mmHg 80%
    04:00 +16°C° 0 mm 2 mps 763 mmHg 81%
    05:00 +16°C° 0 mm 2 mps 763 mmHg 80%
    06:00 +17°C° 0 mm 2 mps 763 mmHg 78%
    07:00 +18°C° 0 mm 2 mps 763 mmHg 76%
    08:00 +20°C° 0 mm 3 mps 763 mmHg 64%
    09:00 +24°C° 0 mm 3 mps 763 mmHg 52%
    10:00 +26°C° 0 mm 4 mps 762 mmHg 40%
    11:00 +28°C° 0 mm 5 mps 761 mmHg 35%
    12:00 +29°C° 0 mm 5 mps 760 mmHg 29%
    13:00 +32°C° 0 mm 6 mps 759 mmHg 24%
    14:00 +30°C° 0 mm 7 mps 759 mmHg 31%
    15:00 +28°C° 0 mm 7 mps 758 mmHg 39%
    16:00 +27°C° 0 mm 8 mps 757 mmHg 47%
    17:00 +24°C° 0 mm 7 mps 757 mmHg 54%
    18:00 +22°C° 0 mm 6 mps 758 mmHg 62%
    19:00 +21°C° 0 mm 6 mps 758 mmHg 70%
    20:00 +20°C° 0 mm 4 mps 758 mmHg 72%
    21:00 +19°C° 0 mm 3 mps 758 mmHg 75%
    22:00 +19°C° 0 mm 2 mps 759 mmHg 77%
    23:00 +18°C° 0 mm 2 mps 758 mmHg 74%

    Day after tomorrow, 19 November, Tuesday

    Time Temperature Precipitation Wind Pressure Humidity
    00:00 +18°C° 0 mm 2 mps 758 mmHg 70%
    01:00 +18°C° 0 mm 2 mps 758 mmHg 66%
    02:00 +17°C° 0 mm 2 mps 758 mmHg 60%
    03:00 +17°C° 0 mm 3 mps 758 mmHg 54%
    04:00 +17°C° 0 mm 3 mps 758 mmHg 47%
    05:00 +19°C° 0 mm 2 mps 758 mmHg 42%
    06:00 +21°C° 0 mm 2 mps 758 mmHg 37%
    07:00 +24°C° 0 mm 2 mps 758 mmHg 32%
    08:00 +27°C° 0 mm 2 mps 758 mmHg 26%
    09:00 +31°C° 0 mm 2 mps 758 mmHg 21%
    10:00 +36°C° 0 mm 2 mps 757 mmHg 15%
    11:00 +37°C° 0 mm 3 mps 757 mmHg 14%
    12:00 +38°C° 0 mm 4 mps 756 mmHg 12%
    13:00 +41°C° 0 mm 5 mps 755 mmHg 10%
    14:00 +40°C° 0 mm 5 mps 755 mmHg 10%
    15:00 +40°C° 0 mm 5 mps 754 mmHg 11%
    16:00 +40°C° 0 mm 5 mps 754 mmHg 11%
    17:00 +34°C° 0 mm 6 mps 755 mmHg 31%
    18:00 +28°C° 0 mm 7 mps 756 mmHg 50%
    19:00 +22°C° 0 mm 9 mps 757 mmHg 70%
    20:00 +21°C° 0 mm 8 mps 758 mmHg 71%
    21:00 +20°C° 0 mm 8 mps 759 mmHg 72%
    22:00 +20°C° 0 mm 7 mps 760 mmHg 74%
    23:00 +18°C° 0 mm 7 mps 760 mmHg 74%

    20 November, Wednesday

    Time Temperature Precipitation Wind Pressure Humidity
    00:00 +19°C° 0 mm 6 mps 760 mmHg 75%
    01:00 +17°C° 0 mm 5 mps 760 mmHg 76%
    02:00 +17°C° 0 mm 5 mps 760 mmHg 75%
    03:00 +19°C° 0 mm 5 mps 760 mmHg 73%
    04:00 +19°C° 0 mm 4 mps 760 mmHg 71%
    05:00 +19°C° 0 mm 4 mps 761 mmHg 70%
    06:00 +19°C° 0 mm 3 mps 761 mmHg 69%
    07:00 +19°C° 0 mm 3 mps 762 mmHg 68%
    08:00 +20°C° 0 mm 3 mps 762 mmHg 66%
    09:00 +20°C° 0 mm 2 mps 762 mmHg 64%
    10:00 +21°C° 0 mm 2 mps 762 mmHg 62%
    11:00 +23°C° 0 mm 2 mps 761 mmHg 57%
    12:00 +25°C° 0 mm 3 mps 761 mmHg 51%
    13:00 +27°C° 0 mm 3 mps 760 mmHg 45%
    14:00 +26°C° 0 mm 3 mps 760 mmHg 49%
    15:00 +26°C° 0 mm 4 mps 760 mmHg 52%
    16:00 +25°C° 0 mm 5 mps 759 mmHg 55%
    17:00 +23°C° 0 mm 5 mps 760 mmHg 63%
    18:00 +21°C° 0 mm 5 mps 761 mmHg 70%
    19:00 +20°C° 0 mm 5 mps 761 mmHg 77%
    20:00 +19°C° 0 mm 4 mps 762 mmHg 80%
    21:00 +19°C° 0 mm 3 mps 762 mmHg 84%
    22:00 +18°C° 0 mm 2 mps 762 mmHg 87%
    23:00 +18°C° 0 mm 2 mps 762 mmHg 87%

    21 November, Thursday

    Time Temperature Precipitation Wind Pressure Humidity
    00:00 +19°C° 0 mm 2 mps 761 mmHg 87%
    01:00 +19°C° 0 mm 2 mps 761 mmHg 86%
    02:00 +18°C° 0 mm 2 mps 761 mmHg 87%
    03:00 +18°C° 0 mm 2 mps 760 mmHg 87%
    04:00 +18°C° 0 mm 2 mps 760 mmHg 88%
    05:00 +19°C° 0 mm 2 mps 760 mmHg 82%
    06:00 +21°C° 0 mm 2 mps 760 mmHg 76%
    07:00 +23°C° 0 mm 2 mps 760 mmHg 69%
    08:00 +26°C° 0 mm 3 mps 760 mmHg 58%
    09:00 +29°C° 0 mm 3 mps 759 mmHg 47%
    10:00 +33°C° 0 mm 4 mps 759 mmHg 36%
    11:00 +34°C° 0 mm 5 mps 758 mmHg 34%
    12:00 +35°C° 0 mm 6 mps 758 mmHg 32%
    13:00 +38°C° 0 mm 6 mps 757 mmHg 30%
    14:00 +35°C° 0 mm 7 mps 757 mmHg 36%
    15:00 +33°C° 0 mm 7 mps 756 mmHg 42%
    16:00 +32°C° 0 mm 7 mps 755 mmHg 49%
    17:00 +29°C° 0 mm 7 mps 756 mmHg 55%
    18:00 +27°C° 0 mm 7 mps 756 mmHg 60%
    19:00 +26°C° 0 mm 7 mps 756 mmHg 66%
    20:00 +24°C° 0 mm 6 mps 757 mmHg 68%
    21:00 +25°C° 0 mm 4 mps 757 mmHg 69%
    22:00 +25°C° 0 mm 3 mps 757 mmHg 70%
    23:00 +23°C° 0 mm 5 mps 757 mmHg 71%

    22 November, Friday

    Time Temperature Precipitation Wind Pressure Humidity
    00:00 +23°C° 0 mm 7 mps 757 mmHg 73%
    01:00 +22°C° 0 mm 8 mps 757 mmHg 74%
    02:00 +21°C° 0 mm 7 mps 757 mmHg 77%
    03:00 +21°C° 0 mm 7 mps 757 mmHg 79%
    04:00 +20°C° 0 mm 6 mps 758 mmHg 82%
    05:00 +21°C° 0 mm 6 mps 758 mmHg 77%
    06:00 +22°C° 0 mm 5 mps 759 mmHg 71%
    07:00 +25°C° 0 mm 5 mps 759 mmHg 65%
    08:00 +27°C° 0 mm 4 mps 759 mmHg 58%
    09:00 +29°C° 0 mm 4 mps 759 mmHg 50%
    10:00 +32°C° 0 mm 4 mps 759 mmHg 43%
    11:00 +30°C° 0 mm 4 mps 758 mmHg 45%
    12:00 +30°C° 0 mm 5 mps 758 mmHg 48%
    13:00 +29°C° 0 mm 6 mps 757 mmHg 50%
    14:00 +28°C° 0.6 mm 6 mps 757 mmHg 55%
    15:00 +27°C° 0.6 mm 7 mps 757 mmHg 60%
    16:00 +24°C° 0.6 mm 7 mps 757 mmHg 66%
    17:00 +24°C° 0.9 mm 7 mps 758 mmHg 70%
    18:00 +23°C° 0.9 mm 7 mps 758 mmHg 74%
    19:00 +22°C° 0.9 mm 7 mps 759 mmHg 77%
    20:00 +22°C° 0.3 mm 6 mps 759 mmHg 80%
    21:00 +21°C° 0.3 mm 4 mps 759 mmHg 82%
    22:00 +21°C° 0.3 mm 3 mps 759 mmHg 84%
    23:00 +21°C° 0.2 mm 3 mps 759 mmHg 84%
    Show more